Temp
30 33 33 33 32 32 32 32 32 31 31 31 31 29 28 28 28 28 28 27 28 28 28 27 26 25 24 24 23 23 23 23 23 22 23 23 23 24 24 25 25 25 25 25
32 33 33 32 32 32 31 32 32 32 31 31 30 30 29 29 29 29 29 29 28 29 28 27 26 26 25 24 24 23 23 24 24 23 22 23 23 24 24 24 25 25 25 25
32 32 31 31 31 31 32 32 32 32 30 30 30 30 29 29 29 29 29 29 29 30 29 28 27 26 26 25 24 24 25 24 24 23 22 23 23 24 24 24 24 25 26 25
32 30 31 32 32 33 33 32 32 31 32 32 31 33 29 29 29 28 28 28 29 29 29 29 27 26 26 26 25 24 23 24 24 24 23 23 24 24 25 24 24 24 25 25
32 30 31 32 32 32 32 31 31 30 31 32 30 32 30 28 29 29 29 27 28 29 29 29 28 27 26 25 25 24 23 23 23 24 24 23 23 24 24 23 23 23 24 25
31 29 30 32 29 30 29 31 29 29 31 32 28 30 30 28 26 27 28 29 27 27 27 27 26 25 24 24 23 24 22 24 24 24 24 24 23 23 23 23 23 24 24 24
30 31 30 30 32 30 31 33 32 31 31 32 26 28 28 26 25 26 26 29 27 26 27 26 26 26 25 25 24 24 23 22 23 24 24 24 24 24 23 22 23 23 24 24
31 31 31 31 32 32 29 33 32 30 31 30 26 28 27 24 25 25 26 28 27 26 27 26 26 25 24 23 23 23 23 23 22 22 22 22 21 22 22 22 22 22 23 23
30 30 30 29 30 30 28 31 28 28 25 29 27 26 26 25 23 25 25 26 25 24 25 24 24 22 21 20 21 20 20 21 21 21 22 22 21 21 21 20 21 21 21 22
29 29 29 29 29 28 30 27 30 28 28 28 27 26 27 25 23 24 24 23 23 23 24 23 21 20 20 19 19 20 21 21 21 21 22 22 22 22 22 21 21 21 21 21
28 30 29 29 28 29 29 29 25 27 27 29 28 27 24 22 22 22 22 22 22 22 20 19 19 17 17 17 18 18 19 20 20 21 21 22 22 22 22 22 21 21 21 21
26 30 28 28 27 26 27 27 28 30 27 25 27 26 23 22 23 23 20 20 19 18 18 17 16 16 16 16 17 17 17 18 17 17 18 18 19 19 19 20 20 20 20 20
27 27 28 28 28 27 28 26 24 25 27 26 28 26 23 22 22 22 22 21 20 19 19 19 19 18 18 17 15 16 16 16 16 15 16 17 18 18 19 19 19 18 19 19
26 25 29 30 28 27 27 26 25 27 29 27 28 23 22 22 21 21 21 20 20 20 19 19 18 17 15 15 14 14 14 15 15 14 14 15 16 16 16 16 17 18 18 18
27 25 25 24 25 26 25 25 25 27 26 28 26 24 23 22 21 21 20 20 20 19 18 17 17 15 14 14 13 13 13 13 13 13 13 13 13 14 15 15 15 16 16 17
24 24 25 25 25 26 24 24 24 23 23 23 24 23 23 21 20 20 20 20 19 19 17 16 15 14 14 13 13 13 13 12 12 12 12 12 12 12 13 14 14 15 16 16
23 24 25 25 23 25 25 22 23 22 22 24 24 24 21 20 20 20 19 19 18 17 16 15 14 13 13 12 12 12 12 11 11 11 11 11 11 11 11 12 12 13 14 14
21 22 23 24 24 24 22 21 22 22 21 22 21 21 21 21 21 19 18 18 17 16 15 14 13 13 12 12 12 11 11 11 11 11 11 11 11 11 11 11 11 11 12 13
23 23 22 24 23 21 21 21 22 23 21 21 21 21 20 19 19 19 16 15 15 15 14 13 12 11 11 11 11 10 10 10 10 10 11 10 10 10 10 11 11 11 11 11
22 21 24 20 22 22 23 23 23 23 23 21 21 21 20 19 22 22 16 15 15 14 12 12 12 11 11 11 10 10 10 10 11 11 10 10 10 10 10 10 10 10 10 11
23 22 23 22 23 23 22 23 23 23 23 22 21 21 20 21 20 17 15 14 13 12 12 11 11 11 11 11 11 11 11 11 11 10 10 9 9 9 9 9 9 9 10 10
24 23 22 21 22 22 22 22 23 23 19 22 21 21 19 19 17 15 15 14 13 13 12 12 12 12 12 11 11 12 12 12 11 11 10 10 9 9 9 9 9 9 9 9
23 22 23 22 23 19 20 21 20 20 21 20 21 19 19 18 17 16 15 14 14 13 13 12 12 12 12 12 12 12 13 12 11 10 9 10 10 9 10 9 10 10 10 10
20 18 22 21 21 21 20 20 19 19 20 19 20 19 18 18 17 16 15 14 13 13 12 12 12 12 12 12 12 12 12 12 11 10 9 10 9 10 10 10 10 10 10 10
21 20 20 21 19 19 21 20 20 18 17 17 17 17 17 16 16 15 14 13 13 13 12 12 12 11 12 12 12 12 12 12 11 10 9 9 10 10 9 10 10 10 10 11
21 21 23 24 22 23 22 20 20 18 18 18 17 15 15 15 15 13 13 13 12 12 12 12 12 12 12 12 12 12 12 11 10 11 10 9 10 10 10 10 10 11 11 12
Height
778 784 792 785 782 782 788 795 799 793 788 796 801 807 808 809 812 817 818 821 823 824 827 832 835 839 843 846 847 850 853 855 858 861 864 865 866 867 866 867 868 868 869 870
784 789 778 778 781 786 789 797 797 792 788 792 801 805 804 805 806 808 813 817 820 821 824 828 832 836 839 842 845 848 850 853 856 859 861 863 864 865 865 865 866 867 868 868
788 782 776 781 785 790 792 794 795 794 794 795 799 808 811 806 807 809 810 812 815 817 819 824 830 832 836 839 841 844 847 849 853 856 859 861 862 863 863 864 864 864 865 865
783 779 780 780 785 782 793 785 787 794 796 810 801 817 815 809 811 810 814 815 816 816 819 822 826 829 831 833 839 842 845 847 850 853 857 859 860 861 862 863 863 863 863 863
785 785 785 786 785 781 794 786 792 797 801 805 815 816 814 809 813 811 810 816 816 815 817 819 821 824 828 833 836 838 841 845 848 850 853 856 858 859 860 860 859 859 859 859
783 777 780 779 783 782 789 793 801 805 805 819 828 821 821 820 823 816 808 808 815 818 820 822 825 827 829 831 835 838 839 841 845 847 850 851 853 855 856 855 855 855 855 856
787 783 781 776 786 787 789 791 816 823 823 822 830 831 824 821 817 813 808 803 812 816 820 822 825 826 827 828 832 834 837 840 841 844 846 848 849 851 851 851 851 851 851 851
795 805 784 779 782 787 799 791 811 840 831 824 829 830 828 823 815 811 803 800 808 816 820 822 825 827 830 832 834 832 837 838 839 843 845 847 849 850 849 848 847 846 846 845
798 800 784 784 781 785 803 804 808 823 843 829 830 831 823 822 824 814 811 811 816 822 823 826 830 831 833 837 838 838 841 844 843 841 841 843 844 848 847 845 843 842 841 840
786 803 791 789 783 790 789 803 812 818 841 841 836 836 826 829 832 823 821 824 824 825 826 830 834 840 838 842 840 844 844 844 843 845 845 845 846 845 846 842 841 840 838 835
780 784 800 791 800 799 802 805 821 816 825 825 834 830 831 835 832 830 828 826 829 830 834 838 839 842 841 844 846 849 845 844 844 844 845 846 846 845 842 839 838 836 834 831
783 783 804 806 801 801 801 807 803 806 831 830 821 833 831 833 829 828 834 837 839 840 842 844 845 847 847 849 849 851 852 849 847 846 846 845 844 841 839 837 834 833 830 827
779 795 812 813 803 801 803 810 817 814 811 824 821 832 830 833 834 832 835 837 840 844 845 847 849 850 853 855 855 852 849 850 848 847 845 843 841 839 836 833 831 828 825 823
777 797 791 797 801 800 808 809 813 807 810 814 811 835 836 835 838 840 841 841 842 843 846 849 851 853 854 854 852 851 850 848 847 845 843 839 836 834 831 826 823 822 819 816
777 801 804 808 806 805 812 815 812 809 811 809 813 821 828 834 836 840 842 843 844 846 847 851 853 855 855 855 854 853 852 849 847 842 838 834 830 827 824 821 818 816 813 809
788 809 805 812 809 808 818 816 815 819 821 819 816 827 827 835 839 841 843 843 845 847 849 851 852 851 850 848 847 844 840 836 833 830 828 826 823 819 817 814 812 809 805 803
796 805 807 816 820 815 822 824 821 822 822 816 822 817 829 838 839 841 843 845 846 848 850 851 851 850 851 851 850 847 844 841 838 835 831 826 821 816 811 807 804 801 798 795
802 810 815 819 821 835 828 822 821 823 825 820 823 826 830 833 836 840 843 843 846 848 850 851 853 854 854 852 851 849 847 844 841 837 833 828 822 815 810 804 798 792 789 785
791 804 824 823 831 834 828 825 822 818 828 823 824 828 832 837 840 840 845 848 849 850 852 853 853 854 853 853 852 850 847 844 840 836 830 825 818 811 804 797 792 786 781 775
800 806 811 833 831 835 815 812 811 812 824 822 823 827 832 836 835 832 843 849 850 851 853 855 855 855 854 852 850 847 843 839 834 828 823 818 811 804 796 788 781 775 770 763
812 816 818 822 824 820 813 809 811 828 824 816 819 823 828 831 831 839 844 847 849 851 854 855 854 852 850 848 846 841 837 832 829 824 817 810 804 795 786 777 770 764 758 751
810 816 821 827 825 827 808 814 820 812 815 813 817 821 826 830 836 840 843 846 848 849 850 850 849 847 843 841 838 834 830 825 820 814 808 803 795 787 776 766 756 749 743 735
814 811 811 813 810 813 809 809 811 812 811 815 816 821 825 830 834 837 841 844 845 846 846 846 845 842 837 835 832 827 820 816 811 807 801 794 786 777 767 755 744 736 729 722
811 814 808 813 810 808 809 810 811 812 812 813 815 820 825 828 833 836 840 842 844 844 844 843 843 840 834 830 826 821 815 812 808 801 794 787 781 769 758 746 735 725 715 707
805 809 811 811 811 811 806 807 807 811 813 815 818 820 824 828 833 836 839 841 841 842 842 841 840 836 829 825 820 815 811 809 805 797 792 786 776 766 753 740 726 714 702 693
801 802 802 802 798 798 801 804 805 808 811 814 817 822 825 828 832 835 836 837 838 838 837 836 834 831 825 820 815 809 805 803 797 791 786 781 773 764 753 738 720 705 691 680
Wind_Speed
2 4 6 9 10 6 3 2 2 2 7 9 9 7 15 17 15 14 14 14 13 14 16 16 17 17 17 18 18 20 22 23 20 15 13 13 13 10 10 13 15 14 13 13
3 6 3 4 7 11 10 7 7 1 6 8 7 6 12 18 19 17 16 15 15 14 11 16 18 19 20 21 20 21 22 23 24 18 14 11 10 10 10 10 14 15 15 16
4 1 3 3 3 8 4 8 5 3 8 3 6 4 10 12 12 13 14 14 14 15 15 13 17 21 20 21 23 24 27 25 25 21 17 16 15 14 14 14 14 15 16 17
3 2 3 6 4 3 5 1 6 11 10 3 3 1 3 6 15 16 13 12 14 14 12 11 15 19 23 24 20 21 23 26 24 23 19 16 16 15 15 14 15 19 20 19
2 1 2 4 2 4 4 5 5 4 4 3 3 4 3 2 8 13 15 15 14 11 11 14 17 20 20 17 18 18 19 19 22 21 23 18 17 17 16 14 15 17 20 21
1 1 1 2 4 4 10 6 5 3 1 5 2 3 3 5 7 7 9 14 13 9 3 2 4 8 10 10 13 12 15 20 21 22 23 25 25 22 18 16 16 16 15 17
0 2 0 1 4 4 2 5 2 4 6 6 2 4 4 9 8 10 14 13 16 12 5 6 4 10 13 12 11 12 13 11 14 18 21 22 23 24 24 20 19 18 19 19
7 6 1 1 0 4 2 2 5 6 6 2 3 3 3 7 6 7 6 12 15 13 9 9 6 5 3 2 4 5 5 5 16 10 10 11 12 14 16 16 16 19 21 23
5 2 3 6 2 3 5 3 3 5 2 3 2 3 5 6 9 7 8 12 12 10 11 11 14 15 16 15 14 12 8 7 6 8 6 2 12 10 8 10 12 14 17 21
5 5 2 2 0 13 1 8 3 1 6 6 3 2 1 7 7 4 9 8 10 10 9 12 18 17 18 17 16 14 11 10 11 9 9 6 4 7 7 7 8 11 13 16
5 2 4 2 5 3 4 3 5 4 2 3 4 3 2 1 3 4 7 8 9 11 13 12 17 17 19 18 19 14 15 15 15 14 13 12 12 13 14 13 12 13 15 15
2 4 4 5 3 2 2 3 2 4 5 0 3 3 2 3 6 11 13 12 14 15 14 16 17 16 17 16 16 15 13 12 14 15 14 14 16 17 16 17 17 17 17 17
8 2 6 4 3 2 2 3 3 4 2 6 4 4 5 8 10 11 14 13 13 13 12 12 12 13 12 11 11 14 16 16 16 17 17 18 18 19 20 20 21 20 20 19
4 4 2 7 3 3 5 3 3 3 4 6 4 11 12 11 13 11 11 10 10 10 10 10 11 12 13 14 16 17 18 19 19 21 21 21 21 22 24 25 24 23 22 22
2 4 4 7 5 5 6 4 2 4 2 5 7 16 16 13 13 10 8 8 8 9 10 10 9 10 11 12 13 14 14 16 19 22 24 26 27 27 27 26 26 25 25 25
3 4 4 4 6 4 4 5 3 3 4 4 12 12 9 10 9 8 6 6 7 7 9 10 12 15 17 20 22 24 28 31 33 33 32 32 32 32 31 29 29 28 27 25
3 6 2 4 4 2 4 4 3 2 2 7 8 7 15 12 9 7 5 5 6 7 8 9 12 14 16 18 21 24 27 29 30 30 33 35 33 34 34 34 33 32 31 31
6 4 2 3 2 5 5 5 6 4 2 3 8 15 13 10 5 5 3 3 4 5 6 9 9 10 13 17 20 22 24 26 27 28 30 30 30 32 32 33 35 35 34 34
6 4 4 3 2 2 1 4 4 2 3 4 12 13 10 6 5 5 6 2 2 5 6 6 7 9 11 14 16 18 20 21 24 26 28 31 32 34 35 35 35 36 35 36
9 8 2 3 3 5 2 8 5 3 3 12 10 12 11 9 5 2 8 5 4 5 3 3 6 8 10 12 13 15 18 20 23 27 30 31 33 35 37 38 39 38 37 38
2 3 2 3 1 2 3 6 6 3 3 16 14 12 12 6 2 6 7 3 3 3 4 7 10 10 10 11 12 14 16 18 23 25 27 31 33 38 41 43 42 40 39 39
3 4 2 2 2 3 6 6 4 2 2 12 13 12 11 6 6 5 5 5 7 5 5 7 10 11 14 14 14 18 18 18 19 22 26 30 33 38 39 41 43 43 41 40
3 1 2 4 1 1 4 2 2 2 2 5 11 10 9 8 6 5 4 5 5 5 7 8 10 15 19 18 18 21 26 24 23 28 32 36 38 39 40 39 37 37 37 37
2 2 1 3 3 2 3 2 2 4 2 5 8 10 9 7 6 4 4 5 5 6 8 8 11 15 22 20 21 23 28 28 29 32 33 38 37 42 42 39 35 34 34 34
1 6 4 1 2 4 7 8 5 6 4 7 8 8 9 7 5 5 5 7 8 8 9 10 13 17 23 22 24 25 28 26 28 32 32 30 37 39 39 41 37 35 37 36
4 4 3 2 5 1 2 2 7 9 9 8 10 7 8 9 5 6 7 8 8 11 11 14 17 18 23 22 24 28 27 23 26 28 26 27 34 31 38 39 41 38 36 25
Wind_Direction
70 205 197 203 215 240 175 213 239 232 174 179 195 165 177 178 189 187 193 194 201 209 210 210 204 201 203 204 200 207 210 214 214 218 224 237 246 255 259 245 246 255 262 273
194 233 213 194 252 237 236 255 267 213 165 210 176 191 178 187 196 192 193 200 207 215 207 208 208 205 206 205 206 210 215 217 217 217 223 230 247 260 260 257 256 263 265 267
225 124 279 207 161 175 207 230 205 159 143 111 157 196 176 202 202 210 212 206 211 216 218 213 206 208 209 212 209 212 217 218 221 220 227 238 251 258 259 262 264 266 270 267
248 312 275 162 149 172 120 34 152 147 166 180 319 134 112 197 206 206 210 215 216 221 227 223 211 210 212 216 216 216 221 223 226 228 230 234 236 247 255 263 272 276 275 270
133 92 149 198 102 209 106 76 79 137 117 175 92 245 56 42 215 216 210 213 230 228 227 221 216 215 217 213 215 217 221 226 226 231 234 238 245 251 262 272 281 283 274 269
286 281 271 89 53 52 140 98 76 79 133 236 44 267 118 21 329 295 261 212 211 214 221 291 240 217 207 200 211 214 220 232 234 240 239 244 250 251 260 266 270 278 278 275
186 128 320 161 114 88 170 170 210 225 218 254 5 204 57 342 339 307 289 220 186 187 162 113 148 202 202 194 199 209 224 223 231 243 245 248 255 264 265 266 272 276 282 281
188 172 128 36 115 159 125 243 231 246 238 203 128 216 56 4 2 344 337 168 156 146 121 97 92 73 95 148 198 196 233 230 280 259 260 273 285 281 277 282 280 281 282 283
163 136 71 29 103 315 135 176 37 114 59 225 144 129 222 46 26 48 96 135 126 110 96 81 84 76 70 66 64 68 80 77 70 56 19 299 317 290 286 282 284 287 289 288
171 137 57 117 294 50 14 131 166 112 181 227 165 208 271 354 4 71 101 101 90 86 95 100 87 72 72 63 61 51 52 47 41 39 35 23 5 341 327 330 313 315 317 315
155 195 126 193 20 144 144 149 66 106 300 230 193 172 358 57 69 100 78 72 80 90 84 79 74 64 53 46 38 24 24 20 11 4 353 345 336 330 331 328 324 323 321 323
140 102 98 106 68 74 66 99 186 241 186 115 304 134 46 92 114 113 98 86 88 83 76 67 57 54 51 39 27 9 15 12 2 352 340 323 314 313 310 308 309 309 308 311
178 93 125 143 166 164 108 95 104 117 158 184 214 142 142 130 116 112 109 99 89 82 80 77 69 56 44 29 16 4 1 348 344 338 333 323 316 312 306 303 299 298 300 299
99 93 208 214 107 108 152 122 127 232 219 163 210 151 170 152 131 121 106 93 82 70 62 54 45 32 20 7 2 353 345 342 334 327 323 319 319 313 308 305 302 296 290 287
64 98 96 75 85 91 85 51 334 229 246 241 158 174 168 156 142 124 111 97 77 59 45 35 27 19 15 10 4 355 349 344 335 329 327 323 317 312 310 308 304 298 291 286
24 112 117 85 64 115 96 56 81 69 141 69 153 150 157 144 136 135 113 90 66 49 35 24 21 19 16 12 5 359 355 351 346 340 333 328 323 318 313 306 302 300 296 288
75 135 138 137 33 153 221 359 303 160 204 161 174 165 154 157 158 153 135 89 54 38 32 29 28 24 17 8 359 352 345 340 337 333 328 324 319 315 313 310 305 299 293 290
114 93 55 105 120 224 20 320 239 115 104 181 118 145 156 159 158 152 130 88 46 43 44 40 29 14 2 353 350 341 336 331 327 322 320 319 314 310 308 304 301 299 295 287
71 116 98 155 182 335 140 184 183 240 129 161 141 144 138 132 143 205 184 154 59 79 63 36 7 347 339 337 332 326 321 317 320 318 315 312 308 303 300 295 291 289 288 285
64 67 92 161 175 203 152 181 219 210 177 180 172 165 160 157 217 116 175 186 158 114 89 360 313 305 300 308 316 314 315 318 316 319 314 308 303 299 296 291 289 287 284 279
81 44 128 152 157 249 233 146 161 221 88 178 187 181 176 197 40 107 140 152 137 155 204 244 260 277 293 301 310 309 313 314 317 316 310 304 306 296 292 291 288 285 282 277
187 162 156 150 177 216 155 131 204 63 123 184 188 184 186 155 144 166 175 178 182 195 234 260 285 300 308 312 307 304 311 319 316 309 309 313 308 307 302 292 286 281 276 272
202 255 193 223 149 18 188 58 95 194 158 184 191 181 178 177 185 176 188 191 211 247 275 287 301 310 311 311 305 297 299 308 316 316 313 322 322 318 315 305 297 284 275 268
162 192 161 208 163 179 199 205 233 197 221 187 192 172 176 176 184 186 194 205 237 250 261 283 297 299 301 307 302 294 293 297 306 300 299 316 320 324 322 317 305 300 277 265
91 162 141 187 253 281 245 229 208 190 178 167 166 173 182 180 182 196 207 226 242 261 270 284 289 291 295 304 300 300 299 301 299 295 299 307 313 326 327 327 316 301 291 279
188 157 206 269 179 207 101 6 207 198 196 183 172 170 184 195 192 196 225 237 245 263 282 289 290 291 295 301 305 309 312 305 290 297 301 298 305 321 342 338 341 331 327 306